[[{"header":{"parameterUnit":"m.s-1","parameterCategory":2,"la1":30.2991,"la2":30.254,"lo1":-89.0895,"lo2":-89.0444,"dy":0.0017,"dx":0.0017,"nx":28,"ny":28,"refTime":"2024-07-04T21:00:00:Z","depth":"0","parameterNumber":2,"parameterNumberName":"U-component_of_CURRENTS"},"data":[0,0,0,0,0,0,0,0,0,0,0,0,0,0,0,0,0,0,0,0,0,0,0,0,0,0,0,0,0,0,0,0,0,0,0,0,0,0,0,0,0,0,0,0,0,0,0,0,0,0,0,0,0,0,0,0,0,0,0.1359,0.1359,0,0.137,0.137,0.1369,0.1365,0.1365,0.1365,0.1365,0.1369,0.1369,0.1369,0,0,0,0,0,0,0,0,0,0,0,0,0,0.1327,0.1328,0.1359,0.1359,0.1359,0.137,0.137,0.1369,0.1365,0.1365,0.1365,0.1365,0.1369,0.1369,0.1369,0,0,0,0,0,0,0,0,0,0,0,0,0,0.1337,0.1328,0.1359,0.136,0.1361,0.137,0.137,0.1369,0.1365,0.1365,0.1365,0.1365,0.1369,0.1369,0.1369,0.1371,0,0,0.137,0.137,0,0,0,0,0,0,0,0,0.1337,0.1338,0.136,0.136,0.1361,0.1368,0.136,0.137,0.1365,0.1361,0.1365,0.1365,0.137,0.137,0.1368,0.1371,0.1371,0.137,0.137,0.137,0.137,0,0,0,0,0,0,0,0.1336,0.1338,0.1361,0.136,0.1361,0.1358,0.136,0.1362,0.1363,0.1361,0.1362,0.1367,0.1369,0.1368,0.1369,0.1371,0.137,0.137,0.137,0.137,0.1399,0.1399,0,0,0,0,0,0,0.134,0.1337,0.136,0.1361,0.1351,0.1359,0.136,0.1364,0.1363,0.1364,0.1367,0.1367,0.1368,0.1368,0.1369,0.1389,0.137,0.137,0.137,0.1398,0.1399,0.14,0,0,0,0,0,0,0.134,0.1342,0.136,0.1351,0.1354,0.136,0.1364,0.1364,0.1365,0.1368,0.1368,0.1368,0.1368,0.1368,0.1376,0.1388,0.137,0.137,0.1397,0.1398,0.1399,0.1418,0,0,0,0,0,0,0.1339,0.1342,0.1343,0.1352,0.1355,0.1367,0.1364,0.1364,0.137,0.1369,0.137,0.137,0.1368,0.1376,0.1376,0.1388,0.137,0.1396,0.1398,0.1399,0.1417,0.142,0.1422,0,0,0,0,0,0.1337,0.1339,0.1343,0.1345,0.1357,0.1367,0.1368,0.1371,0.137,0.1371,0.1374,0.137,0.1384,0.1377,0.1377,0.1389,0.1396,0.1397,0.1399,0.1416,0.1419,0.1422,0,0,0,0,0,0,0.1324,0.1339,0.1343,0.1349,0.1359,0.1367,0.1369,0.1373,0.1375,0.1376,0.1375,0.1376,0.1388,0.1386,0.1378,0.1402,0.1391,0.1392,0.1403,0.1407,0.1409,0.1428,0.1371,0,0,0,0,0,0.1323,0.1327,0.1343,0.1347,0.1354,0.1362,0.1366,0.1371,0.1377,0.1378,0.1378,0.1383,0.1395,0.1398,0.1403,0.1413,0.1423,0.1423,0.1426,0.1428,0.1444,0.1476,0.1484,0.1404,0.1404,0.1404,0,0,0.1318,0.1328,0.133,0.1345,0.1352,0.1363,0.1363,0.1373,0.1384,0.1378,0.1386,0.1391,0.14,0.1413,0.1419,0.1413,0.1451,0.143,0.1432,0.1447,0.1479,0.1487,0.1494,0.1405,0.1405,0.1405,0,0,0.1313,0.1321,0.1325,0.1336,0.1353,0.1363,0.1367,0.1379,0.1385,0.1397,0.14,0.1418,0.142,0.1438,0.1446,0.1469,0.1465,0.1462,0.1492,0.1522,0.1529,0.1536,0.1538,0.1545,0.1464,0.1464,0.1464,0,0.1309,0.1317,0.1327,0.1338,0.135,0.1364,0.1376,0.1386,0.1398,0.1412,0.1402,0.1435,0.1438,0.1476,0.1484,0.1477,0.1482,0.1476,0.1526,0.1533,0.1539,0.1541,0.1548,0.1465,0.1465,0.1465,0.1465,0,0.131,0.1318,0.1322,0.1342,0.1356,0.1368,0.1391,0.1403,0.1413,0.1429,0.1462,0.1472,0.1496,0.1498,0.1499,0.1545,0.1529,0.1525,0.1518,0.1549,0.1548,0.1555,0.1467,0.1466,0.1466,0.1466,0,0,0.1302,0.1319,0.1322,0.1332,0.1361,0.1373,0.14,0.1433,0.1457,0.1472,0.1508,0.1534,0.1545,0.1557,0.1561,0.159,0.1629,0.1577,0.1578,0.1581,0.1677,0.1651,0.1656,0.1632,0.1634,0.1636,0.1652,0,0.1302,0.1314,0.1329,0.1349,0.1361,0.1389,0.1415,0.1448,0.1474,0.1509,0.1542,0.1573,0.1565,0.158,0.1611,0.163,0.1652,0.1624,0.1648,0.1649,0.1623,0.1665,0.1719,0.1737,0.1658,0.1659,0.166,0,0.1305,0.1314,0.1327,0.1359,0.1369,0.1385,0.1437,0.1464,0.1522,0.1545,0.1588,0.1609,0.1661,0.1646,0.1702,0.1682,0.1686,0.1695,0.1696,0.1676,0.1637,0.1699,0.1753,0.1779,0.1671,0.167,0.1669,0,0.1297,0.1318,0.1327,0.1337,0.1373,0.1391,0.1418,0.1474,0.151,0.1572,0.1606,0.1658,0.1691,0.1718,0.1732,0.1722,0.1783,0.1768,0.1746,0.1742,0.1797,0.1796,0.1886,0.1811,0.1811,0.1811,0.1811,0,0.1297,0.1307,0.132,0.1326,0.135,0.1384,0.1424,0.1461,0.1529,0.158,0.1623,0.1671,0.1714,0.1748,0.1752,0.177,0.1796,0.1767,0.1758,0.1801,0.18,0.1831,0.1798,0.1812,0.1812,0.1812,0.1811,0,0.129,0.1296,0.1309,0.1335,0.1344,0.1363,0.1422,0.1459,0.1521,0.159,0.1615,0.1694,0.1743,0.1765,0.1809,0.1794,0.1771,0.1804,0.1834,0.1829,0.1826,0.179,0.1608,0.1585,0.1794,0.1793,0.1793,0,0.1289,0.129,0.1305,0.1311,0.132,0.1352,0.138,0.1446,0.1493,0.1603,0.1639,0.1711,0.177,0.1815,0.1827,0.1835,0.1758,0.1849,0.1848,0.1851,0.1805,0.1585,0.1564,0.1921,0.1922,0.1922,0.1923,0,0.1288,0.1287,0.1293,0.13,0.1317,0.1343,0.1389,0.1427,0.1516,0.1583,0.1673,0.1733,0.1808,0.1868,0.1872,0.1873,0.1785,0.1859,0.1884,0.1934,0.1682,0.1648,0.1856,0.1929,0.1928,0.1928,0.1927,0.1927,0.1288,0.1283,0.1283,0.1292,0.1307,0.1334,0.1357,0.142,0.1494,0.1604,0.1671,0.1773,0.1913,0.1955,0.1925,0.1956,0.1797,0.1959,0.192,0.1696,0.1663,0.1856,0.19,0.1899,0.1898,0.1898,0.1897,0,0.1288,0.1278,0.128,0.1286,0.1296,0.1311,0.1363,0.1391,0.1465,0.16,0.1688,0.187,0.1969,0.2035,0.2112,0.207,0.1916,0.2019,0.1806,0.1793,0.2043,0.205,0.2104,0.2104,0.2104,0.2104,0.2104,0.2104,0.1287,0.1277,0.1271,0.1272,0.1278,0.1292,0.1316,0.1365,0.1458,0.1598,0.1719,0.1814,0.1985,0.2121,0.2163,0.2131,0.1974,0.1825,0.1756,0.2072,0.2065,0.2059,0.2064,0.212,0.2119,0.1488,0.1484,0.1481]},{"header":{"parameterUnit":"m.s-1","parameterCategory":2,"la1":30.2991,"la2":30.254,"lo1":-89.0895,"lo2":-89.0444,"dy":0.0017,"dx":0.0017,"nx":28,"ny":28,"refTime":"2024-07-04T21:00:00:Z","depth":"0","parameterNumber":3,"parameterNumberName":"V-component_of_CURRENTS"},"data":[0,0,0,0,0,0,0,0,0,0,0,0,0,0,0,0,0,0,0,0,0,0,0,0,0,0,0,0,0,0,0,0,0,0,0,0,0,0,0,0,0,0,0,0,0,0,0,0,0,0,0,0,0,0,0,0,0,0,0.0247,0.0247,0,0.0249,0.0249,0.0249,0.0246,0.0245,0.0245,0.0245,0.0223,0.0222,0.0222,0,0,0,0,0,0,0,0,0,0,0,0,0,0.024,0.024,0.0247,0.0247,0.0247,0.0249,0.0249,0.0249,0.0246,0.0245,0.0245,0.0245,0.0223,0.0223,0.0222,0,0,0,0,0,0,0,0,0,0,0,0,0,0.0243,0.024,0.0247,0.0245,0.0245,0.0249,0.0249,0.0249,0.0246,0.0245,0.0245,0.0245,0.0223,0.0223,0.0222,0.0223,0,0,0.022,0.022,0,0,0,0,0,0,0,0,0.0243,0.0243,0.0245,0.0245,0.0245,0.0246,0.0238,0.0239,0.0246,0.0246,0.0245,0.0245,0.0228,0.0227,0.0229,0.0222,0.0221,0.022,0.0219,0.0219,0.0219,0,0,0,0,0,0,0,0.0242,0.0243,0.0248,0.0245,0.0245,0.0244,0.0244,0.0239,0.0238,0.0246,0.0245,0.0245,0.0228,0.023,0.0229,0.022,0.022,0.0219,0.0219,0.0219,0.0208,0.0208,0,0,0,0,0,0,0.0242,0.0243,0.0248,0.0248,0.0243,0.0244,0.0245,0.0246,0.0239,0.0238,0.0245,0.0245,0.0231,0.0229,0.0228,0.023,0.0219,0.0219,0.0218,0.0208,0.0208,0.0208,0,0,0,0,0,0,0.0241,0.0242,0.0248,0.0245,0.0246,0.0245,0.0247,0.0247,0.0248,0.0239,0.0237,0.0247,0.0231,0.0229,0.0224,0.0229,0.0218,0.0218,0.0208,0.0208,0.0208,0.0234,0,0,0,0,0,0,0.0241,0.0242,0.0245,0.0245,0.0246,0.0253,0.0247,0.0247,0.0248,0.0248,0.024,0.0237,0.0231,0.0225,0.0224,0.0228,0.0217,0.0208,0.0208,0.0208,0.0233,0.0235,0.0236,0,0,0,0,0,0.0241,0.0247,0.0245,0.0246,0.0249,0.0253,0.0254,0.0252,0.0249,0.0252,0.0246,0.0238,0.0226,0.0225,0.0223,0.0227,0.0208,0.0208,0.0208,0.0232,0.0234,0.0236,0,0,0,0,0,0,0.0245,0.0247,0.0245,0.0251,0.0252,0.0252,0.0256,0.0254,0.0252,0.0251,0.024,0.0238,0.0236,0.0227,0.0227,0.0224,0.0215,0.0215,0.0233,0.0236,0.0238,0.0248,0.0217,0,0,0,0,0,0.0248,0.0253,0.0252,0.0257,0.0258,0.0257,0.0259,0.0258,0.0255,0.0255,0.0248,0.024,0.0236,0.0232,0.0227,0.0226,0.022,0.0226,0.0228,0.023,0.0237,0.0236,0.0239,0.0209,0.0209,0.0209,0,0,0.025,0.0252,0.0254,0.0259,0.026,0.0266,0.0258,0.0262,0.0266,0.0252,0.0254,0.0246,0.0237,0.0237,0.0235,0.023,0.0233,0.023,0.0232,0.0238,0.0236,0.0239,0.0242,0.021,0.021,0.021,0,0,0.0259,0.026,0.0268,0.0271,0.0274,0.0274,0.0275,0.0274,0.0274,0.0275,0.0265,0.0263,0.0253,0.0251,0.0248,0.0256,0.0244,0.025,0.0269,0.0268,0.027,0.0273,0.0262,0.0264,0.0251,0.0251,0.0251,0,0.0261,0.0273,0.0271,0.028,0.0286,0.0278,0.0288,0.0287,0.0285,0.0288,0.0278,0.0275,0.0263,0.027,0.027,0.0262,0.0255,0.0262,0.0271,0.0273,0.0275,0.0264,0.0265,0.0252,0.0252,0.0252,0.0252,0,0.0278,0.0288,0.0294,0.0304,0.0308,0.0316,0.0314,0.0316,0.0311,0.0312,0.0316,0.0303,0.0304,0.0296,0.0285,0.0293,0.0281,0.0274,0.0267,0.028,0.0267,0.0268,0.0254,0.0253,0.0253,0.0253,0,0,0.0281,0.0301,0.0304,0.0316,0.0322,0.0329,0.0336,0.0344,0.0357,0.0347,0.0364,0.0349,0.0345,0.0341,0.0327,0.0322,0.0322,0.0304,0.0303,0.0297,0.0313,0.0304,0.0303,0.0316,0.0317,0.0317,0.0296,0,0.0295,0.0321,0.0326,0.035,0.0363,0.0362,0.0372,0.0378,0.038,0.0393,0.0381,0.039,0.0361,0.0366,0.0355,0.0334,0.0325,0.0327,0.0299,0.0298,0.0292,0.0305,0.0353,0.0339,0.0297,0.0297,0.0297,0,0.0311,0.0327,0.0354,0.038,0.0386,0.0398,0.0419,0.0429,0.044,0.0444,0.0448,0.0441,0.0435,0.041,0.0379,0.0381,0.035,0.0328,0.0327,0.0313,0.0291,0.032,0.0341,0.0324,0.0298,0.0298,0.0298,0,0.0319,0.0348,0.0372,0.038,0.0405,0.0418,0.0431,0.0445,0.0468,0.0482,0.0504,0.0487,0.0491,0.0452,0.0401,0.0393,0.0365,0.0348,0.031,0.0308,0.0341,0.0342,0.0348,0.0329,0.0329,0.0329,0.033,0,0.0333,0.0353,0.0379,0.0393,0.0426,0.0436,0.0473,0.0483,0.0514,0.0561,0.0535,0.0569,0.0503,0.0479,0.0422,0.0369,0.038,0.0319,0.0308,0.035,0.0352,0.0331,0.03,0.0329,0.0329,0.0329,0.0329,0,0.0338,0.0355,0.0387,0.0419,0.0433,0.0457,0.0507,0.054,0.056,0.0622,0.0634,0.063,0.0603,0.0529,0.0466,0.0404,0.0347,0.0326,0.0373,0.0367,0.0312,0.0281,0.026,0.0286,0.0284,0.0284,0.0284,0,0.0343,0.0359,0.0406,0.0432,0.0449,0.0489,0.0526,0.056,0.0608,0.0673,0.0713,0.07,0.0726,0.0615,0.0497,0.0394,0.0358,0.0352,0.0344,0.0323,0.0279,0.0262,0.0285,0.0394,0.0395,0.0395,0.0396,0,0.0352,0.0369,0.0398,0.0454,0.0497,0.0552,0.0611,0.0662,0.0723,0.0791,0.0878,0.0906,0.0801,0.0739,0.057,0.048,0.0365,0.036,0.0337,0.0366,0.0351,0.0366,0.0382,0.0401,0.04,0.04,0.04,0.04,0.0359,0.0383,0.0428,0.0482,0.0537,0.0622,0.0694,0.0781,0.0889,0.104,0.1029,0.1144,0.1015,0.0804,0.0632,0.0414,0.0404,0.038,0.0342,0.0326,0.0359,0.0376,0.0379,0.0379,0.0378,0.0378,0.0377,0,0.0372,0.0407,0.0457,0.0534,0.0607,0.0635,0.0761,0.0871,0.1036,0.1205,0.1315,0.1412,0.1203,0.097,0.0658,0.0473,0.0408,0.037,0.0375,0.04,0.0424,0.0438,0.0457,0.0457,0.0457,0.0457,0.0457,0.0457,0.0382,0.0432,0.0464,0.0584,0.0648,0.0783,0.0874,0.1056,0.1229,0.1539,0.1723,0.1831,0.1776,0.1053,0.0639,0.0496,0.0419,0.0339,0.0316,0.0339,0.0338,0.0337,0.0345,0.0343,0.0343,0.0359,0.0358,0.0358]}],[{"header":{"parameterUnit":"m.s-1","parameterCategory":2,"la1":30.2991,"la2":30.254,"lo1":-89.0895,"lo2":-89.0444,"dy":0.0017,"dx":0.0017,"nx":28,"ny":28,"refTime":"2024-07-04T21:00:00:Z","depth":"2","parameterNumber":2,"parameterNumberName":"U-component_of_CURRENTS"},"data":[0,0,0,0,0,0,0,0,0,0,0,0,0,0,0,0,0,0,0,0,0,0,0,0,0,0,0,0,0,0,0,0,0,0,0,0,0,0,0,0,0,0,0,0,0,0,0,0,0,0,0,0,0,0,0,0,0,0,0.1263,0.1264,0,0.1272,0.1272,0.1272,0.1269,0.1269,0.1269,0.1269,0.1273,0.1273,0.1273,0,0,0,0,0,0,0,0,0,0,0,0,0,0.1235,0.1236,0.1263,0.1264,0.1264,0.1272,0.1272,0.1272,0.1269,0.1269,0.1269,0.1269,0.1273,0.1273,0.1273,0,0,0,0,0,0,0,0,0,0,0,0,0,0.1244,0.1236,0.1263,0.1266,0.1266,0.1272,0.1272,0.1272,0.1269,0.1269,0.1269,0.1269,0.1273,0.1273,0.1273,0.1272,0,0,0.1274,0.1274,0,0,0,0,0,0,0,0,0.1243,0.1244,0.1265,0.1265,0.1266,0.1272,0.1264,0.1273,0.1269,0.1265,0.1269,0.1269,0.1274,0.1274,0.1272,0.1272,0.1272,0.1274,0.1274,0.1274,0.1274,0,0,0,0,0,0,0,0.1243,0.1244,0.1264,0.1265,0.1266,0.1264,0.1265,0.1265,0.1267,0.1265,0.1266,0.1271,0.1274,0.1272,0.1272,0.1272,0.1274,0.1274,0.1274,0.1274,0.13,0.13,0,0,0,0,0,0,0.1247,0.1243,0.1264,0.1265,0.1258,0.1264,0.1265,0.1268,0.1267,0.1268,0.1271,0.1271,0.1272,0.1272,0.1272,0.1293,0.1274,0.1274,0.1274,0.1299,0.13,0.13,0,0,0,0,0,0,0.1247,0.1249,0.1264,0.1256,0.1259,0.1265,0.1268,0.1268,0.127,0.1272,0.1272,0.1274,0.1272,0.1272,0.128,0.1293,0.1274,0.1274,0.1298,0.1299,0.13,0.1321,0,0,0,0,0,0,0.1246,0.1248,0.125,0.1257,0.1259,0.127,0.1268,0.1268,0.1275,0.1275,0.1274,0.1274,0.1272,0.128,0.128,0.1292,0.1274,0.1297,0.1299,0.13,0.132,0.1323,0.1325,0,0,0,0,0,0.1245,0.1246,0.125,0.1252,0.1261,0.127,0.1271,0.1274,0.1275,0.1276,0.1279,0.1275,0.1288,0.128,0.128,0.1293,0.1297,0.1298,0.13,0.1318,0.1322,0.1325,0,0,0,0,0,0,0.1234,0.1246,0.125,0.1255,0.1265,0.1271,0.1273,0.1277,0.128,0.1281,0.128,0.128,0.1293,0.129,0.1282,0.1305,0.1293,0.1294,0.1307,0.131,0.1313,0.1332,0.1274,0,0,0,0,0,0.1233,0.1237,0.125,0.1254,0.126,0.1268,0.1271,0.1276,0.1282,0.1283,0.1283,0.1288,0.1298,0.1302,0.1305,0.1315,0.1325,0.1325,0.1328,0.133,0.1346,0.1378,0.1385,0.1305,0.1305,0.1305,0,0,0.1229,0.1238,0.1239,0.1252,0.1259,0.1269,0.1269,0.1279,0.129,0.1284,0.1292,0.1296,0.1303,0.1316,0.1322,0.1316,0.1354,0.1332,0.1334,0.1349,0.138,0.1388,0.1395,0.1306,0.1306,0.1306,0,0,0.1226,0.1233,0.1236,0.1246,0.1262,0.127,0.1275,0.1285,0.1292,0.1303,0.1306,0.1324,0.1325,0.1341,0.1348,0.1371,0.1367,0.1365,0.1395,0.1425,0.1432,0.1438,0.1442,0.1449,0.1367,0.1367,0.1367,0,0.1223,0.1229,0.1238,0.1247,0.1259,0.1272,0.1284,0.1293,0.1304,0.1318,0.131,0.1341,0.1343,0.1378,0.1387,0.138,0.1385,0.138,0.143,0.1436,0.1442,0.1445,0.1452,0.1368,0.1368,0.1368,0.1368,0,0.1224,0.1231,0.1235,0.1252,0.1265,0.1277,0.1298,0.131,0.1321,0.1336,0.1368,0.1378,0.1401,0.1403,0.1403,0.1449,0.1433,0.1428,0.1421,0.1452,0.1452,0.1459,0.137,0.1369,0.1369,0.1369,0,0,0.1219,0.1232,0.1235,0.1244,0.1271,0.1282,0.1307,0.1339,0.1363,0.1378,0.1413,0.1439,0.1451,0.1462,0.1465,0.1494,0.1534,0.1482,0.1483,0.1486,0.1582,0.1555,0.1559,0.1537,0.1539,0.154,0.1558,0,0.122,0.123,0.1242,0.126,0.1271,0.1297,0.1322,0.1354,0.138,0.1414,0.1447,0.1477,0.147,0.1486,0.1516,0.1534,0.1557,0.1529,0.1553,0.1553,0.1526,0.1569,0.144,0.1444,0.1564,0.1566,0.1566,0,0.1224,0.123,0.1242,0.127,0.1279,0.1294,0.1345,0.137,0.1427,0.145,0.1493,0.1513,0.1566,0.1552,0.1607,0.1587,0.1592,0.1601,0.1601,0.1579,0.154,0.1437,0.1453,0.1578,0.1577,0.1576,0.1576,0,0.1217,0.1235,0.1243,0.1251,0.1284,0.1302,0.1328,0.1381,0.1417,0.1478,0.1512,0.1563,0.1597,0.1624,0.1638,0.1628,0.1688,0.1673,0.165,0.1646,0.1546,0.1531,0.1717,0.1717,0.1716,0.1716,0.1716,0,0.1218,0.1228,0.1238,0.1243,0.1265,0.1297,0.1337,0.1372,0.1438,0.1487,0.153,0.1577,0.162,0.1653,0.1658,0.1675,0.1702,0.1672,0.1663,0.1546,0.1532,0.1658,0.1651,0.1717,0.1717,0.1717,0.1717,0,0.1215,0.1219,0.1229,0.1252,0.126,0.128,0.1336,0.1371,0.1433,0.15,0.1525,0.1602,0.165,0.1672,0.1715,0.1699,0.1716,0.1708,0.1557,0.1532,0.1646,0.164,0.1699,0.1698,0.1698,0.1698,0.1697,0,0.1215,0.1215,0.1227,0.1232,0.124,0.1271,0.1298,0.1361,0.1406,0.1513,0.1548,0.1619,0.1672,0.1715,0.1686,0.1683,0.1715,0.1563,0.1536,0.1666,0.1651,0.1645,0.164,0.1395,0.1393,0.139,0.1389,0,0.1215,0.1214,0.1218,0.1223,0.1239,0.1262,0.1306,0.1342,0.1428,0.1488,0.1575,0.1629,0.1666,0.1621,0.1608,0.1582,0.1556,0.1519,0.1703,0.1427,0.1384,0.1368,0.1372,0.1369,0.1371,0.1372,0.1373,0.1374,0.1216,0.1212,0.121,0.1217,0.123,0.1253,0.1274,0.1315,0.1378,0.1443,0.1528,0.1549,0.1556,0.1487,0.1428,0.136,0.1474,0.1406,0.1411,0.1419,0.1389,0.1348,0.1318,0.132,0.1321,0.1323,0.1324,0,0.1209,0.1207,0.1208,0.1211,0.1206,0.1233,0.128,0.1264,0.1302,0.1362,0.1409,0.1296,0.1284,0.1279,0.1159,0.1152,0.111,0.1098,0.1043,0.1065,0.1084,0.1034,0.0871,0.0869,0.0867,0.0866,0,0,0.1206,0.1191,0.1184,0.1174,0.1187,0.1171,0.1191,0.1161,0.1173,0.115,0.1154,0.1239,0.1284,0.1076,0.1036,0.0948,0.0994,0.0898,0.1267,0.1228,0.1246,0.1274,0.1224,0,0,0,0,0]},{"header":{"parameterUnit":"m.s-1","parameterCategory":2,"la1":30.2991,"la2":30.254,"lo1":-89.0895,"lo2":-89.0444,"dy":0.0017,"dx":0.0017,"nx":28,"ny":28,"refTime":"2024-07-04T21:00:00:Z","depth":"2","parameterNumber":3,"parameterNumberName":"V-component_of_CURRENTS"},"data":[0,0,0,0,0,0,0,0,0,0,0,0,0,0,0,0,0,0,0,0,0,0,0,0,0,0,0,0,0,0,0,0,0,0,0,0,0,0,0,0,0,0,0,0,0,0,0,0,0,0,0,0,0,0,0,0,0,0,0.0222,0.0221,0,0.0223,0.0223,0.0223,0.022,0.022,0.022,0.022,0.0198,0.0197,0.0197,0,0,0,0,0,0,0,0,0,0,0,0,0,0.0217,0.0217,0.0222,0.0221,0.0221,0.0223,0.0223,0.0223,0.022,0.022,0.022,0.022,0.0198,0.0197,0.0197,0,0,0,0,0,0,0,0,0,0,0,0,0,0.0219,0.0217,0.0222,0.022,0.022,0.0223,0.0223,0.0224,0.022,0.022,0.022,0.022,0.0198,0.0197,0.0197,0.0197,0,0,0.0195,0.0194,0,0,0,0,0,0,0,0,0.0219,0.0219,0.022,0.022,0.022,0.0221,0.0214,0.0213,0.022,0.0221,0.022,0.022,0.0203,0.0202,0.0204,0.0196,0.0195,0.0195,0.0194,0.0194,0.0194,0,0,0,0,0,0,0,0.0219,0.0219,0.0223,0.022,0.022,0.0219,0.022,0.0214,0.0213,0.022,0.022,0.022,0.0203,0.0205,0.0203,0.0195,0.0195,0.0194,0.0194,0.0193,0.0183,0.0183,0,0,0,0,0,0,0.0218,0.0219,0.0223,0.0223,0.0218,0.022,0.022,0.0221,0.0214,0.0212,0.022,0.022,0.0206,0.0204,0.0202,0.0205,0.0194,0.0193,0.0193,0.0183,0.0183,0.0183,0,0,0,0,0,0,0.0218,0.0218,0.0223,0.022,0.0221,0.022,0.0221,0.0221,0.0223,0.0213,0.0212,0.0222,0.0206,0.0203,0.0199,0.0204,0.0193,0.0192,0.0183,0.0183,0.0183,0.0209,0,0,0,0,0,0,0.0218,0.0218,0.0221,0.022,0.0221,0.0228,0.0222,0.0221,0.0223,0.0223,0.0214,0.0212,0.0205,0.02,0.0199,0.0203,0.0192,0.0183,0.0183,0.0183,0.0208,0.021,0.0212,0,0,0,0,0,0.0218,0.0223,0.0221,0.0222,0.0224,0.0228,0.0228,0.0227,0.0223,0.0227,0.0221,0.0213,0.0201,0.02,0.0198,0.0202,0.0183,0.0183,0.0183,0.0207,0.021,0.0212,0,0,0,0,0,0,0.0223,0.0223,0.0221,0.0227,0.0228,0.0227,0.0231,0.0228,0.0227,0.0226,0.0215,0.0213,0.0211,0.0202,0.0202,0.02,0.019,0.019,0.0209,0.0211,0.0213,0.0224,0.0191,0,0,0,0,0,0.0225,0.0229,0.0228,0.0233,0.0234,0.0233,0.0234,0.0233,0.023,0.023,0.0223,0.0215,0.0211,0.0208,0.0202,0.0201,0.0195,0.0201,0.0203,0.0205,0.0212,0.0212,0.0214,0.0184,0.0184,0.0184,0,0,0.0228,0.0229,0.0231,0.0235,0.0236,0.0242,0.0233,0.0237,0.0242,0.0227,0.023,0.0222,0.0212,0.0212,0.0211,0.0206,0.0209,0.0206,0.0207,0.0214,0.0212,0.0215,0.0218,0.0184,0.0184,0.0184,0,0,0.0237,0.0237,0.0245,0.0248,0.0251,0.025,0.0251,0.025,0.0249,0.0251,0.0241,0.0239,0.0229,0.0227,0.0224,0.0233,0.022,0.0226,0.0245,0.0244,0.0247,0.0249,0.0239,0.0241,0.0227,0.0227,0.0227,0,0.024,0.0251,0.0248,0.0257,0.0262,0.0254,0.0265,0.0263,0.0261,0.0264,0.0254,0.0251,0.0239,0.0247,0.0247,0.0238,0.0232,0.0238,0.0248,0.025,0.0252,0.0241,0.0242,0.0228,0.0228,0.0228,0.0228,0,0.0256,0.0266,0.0271,0.0281,0.0285,0.0293,0.029,0.0293,0.0288,0.0288,0.0293,0.028,0.0281,0.0273,0.0262,0.027,0.0258,0.0251,0.0244,0.0257,0.0244,0.0245,0.023,0.023,0.0229,0.0229,0,0,0.0261,0.0279,0.0282,0.0294,0.0299,0.0306,0.0313,0.0321,0.0334,0.0324,0.0342,0.0327,0.0323,0.0319,0.0305,0.0299,0.03,0.0281,0.028,0.0275,0.0291,0.0281,0.028,0.0294,0.0295,0.0295,0.0275,0,0.0275,0.03,0.0304,0.0328,0.034,0.0339,0.035,0.0355,0.0358,0.0371,0.0359,0.0368,0.0339,0.0344,0.0334,0.0312,0.0304,0.0306,0.0277,0.0276,0.0269,0.0282,0.0263,0.0244,0.0275,0.0276,0.0276,0,0.029,0.0306,0.0333,0.0358,0.0364,0.0376,0.0398,0.0408,0.0419,0.0423,0.0428,0.042,0.0414,0.0389,0.0358,0.036,0.0329,0.0307,0.0306,0.029,0.0267,0.0237,0.0244,0.0276,0.0276,0.0276,0.0276,0,0.03,0.0327,0.0351,0.0359,0.0384,0.0397,0.041,0.0425,0.0448,0.0461,0.0483,0.0467,0.0471,0.0432,0.038,0.0372,0.0344,0.0327,0.0288,0.0286,0.0263,0.0259,0.0309,0.0309,0.0309,0.0309,0.0309,0,0.0315,0.0334,0.0359,0.0373,0.0407,0.0416,0.0454,0.0464,0.0495,0.0541,0.0516,0.0548,0.0482,0.0458,0.0401,0.0348,0.0359,0.0297,0.0285,0.027,0.0267,0.029,0.0288,0.0308,0.0308,0.0309,0.0309,0,0.0321,0.0337,0.0368,0.04,0.0413,0.0438,0.0488,0.0521,0.0542,0.0603,0.0614,0.061,0.0582,0.0507,0.0444,0.0383,0.0327,0.0304,0.0285,0.0271,0.0263,0.0263,0.0262,0.0262,0.0261,0.0261,0.0261,0,0.0326,0.0342,0.0388,0.0414,0.0431,0.0471,0.0507,0.0541,0.0589,0.0653,0.0692,0.0678,0.0699,0.0587,0.0456,0.0349,0.0337,0.0259,0.0243,0.0272,0.0261,0.0261,0.0261,0.0215,0.0214,0.0214,0.0213,0,0.0335,0.0352,0.0381,0.0436,0.0479,0.0534,0.0592,0.0643,0.0704,0.0768,0.0852,0.0874,0.0756,0.0643,0.0468,0.0381,0.0272,0.0247,0.0289,0.0233,0.0227,0.0216,0.0218,0.0209,0.0209,0.021,0.021,0.021,0.0343,0.0367,0.0411,0.0465,0.0519,0.0603,0.0675,0.0751,0.0854,0.0971,0.0968,0.1009,0.0834,0.0626,0.0446,0.0244,0.0271,0.0201,0.0203,0.0205,0.0207,0.0201,0.0177,0.0178,0.0178,0.0178,0.0178,0,0.0354,0.039,0.0439,0.0516,0.0586,0.0616,0.0741,0.083,0.0976,0.1064,0.1141,0.0998,0.0843,0.0644,0.0349,0.0185,0.0153,0.012,0.0119,0.0124,0.0129,0.0127,0.0076,0.0076,0.0075,0.0074,0,0,0.0363,0.0411,0.0443,0.056,0.0625,0.0751,0.0841,0.0978,0.1078,0.1194,0.1219,0.1187,0.094,0.0706,0.0448,0.0276,0.0243,0.0229,0.0327,0.0362,0.0369,0.0188,0.0193,0,0,0,0,0]}],[{"header":{"parameterUnit":"m.s-1","parameterCategory":2,"la1":30.2991,"la2":30.254,"lo1":-89.0895,"lo2":-89.0444,"dy":0.0017,"dx":0.0017,"nx":28,"ny":28,"refTime":"2024-07-04T21:00:00:Z","depth":"4","parameterNumber":2,"parameterNumberName":"U-component_of_CURRENTS"},"data":[0,0,0,0,0,0,0,0,0,0,0,0,0,0,0,0,0,0,0,0,0,0,0,0,0,0,0,0,0,0,0,0,0,0,0,0,0,0,0,0,0,0,0,0,0,0,0,0,0,0,0,0,0,0,0,0,0,0,0.0502,0.0502,0,0.0501,0.0502,0.0502,0.0519,0.0519,0.0519,0.0519,0.0534,0.0534,0.0534,0,0,0,0,0,0,0,0,0,0,0,0,0,0.0557,0.0556,0.0502,0.0502,0.0502,0.0501,0.0502,0.0502,0.0519,0.0519,0.0519,0.0519,0.0534,0.0534,0.0534,0,0,0,0,0,0,0,0,0,0,0,0,0,0.0546,0.0555,0.0502,0.0507,0.0507,0.0501,0.0502,0.0502,0.0519,0.0519,0.0519,0.0519,0.0533,0.0534,0.0534,0.0534,0,0,0.0536,0.0536,0,0,0,0,0,0,0,0,0.0546,0.0544,0.0507,0.0507,0.0507,0.0507,0.0526,0.0512,0.0519,0.0519,0.0519,0.0519,0.0523,0.0525,0.053,0.0535,0.0536,0.0536,0.0536,0.0536,0.0536,0,0,0,0,0,0,0,0.0547,0.0545,0.0506,0.0506,0.0506,0.0522,0.0521,0.0524,0.0524,0.0519,0.0519,0.0512,0.0524,0.0529,0.053,0.0536,0.0536,0.0536,0.0536,0.0537,0.058,0.0581,0,0,0,0,0,0,0.0537,0.0545,0.0506,0.0506,0.0523,0.052,0.0519,0.051,0.0523,0.0524,0.0512,0.0513,0.0528,0.053,0.0531,0.0565,0.0536,0.0537,0.0537,0.0579,0.058,0.0581,0,0,0,0,0,0,0.0538,0.0533,0.0506,0.0523,0.052,0.0519,0.0509,0.051,0.0531,0.0518,0.052,0.0533,0.0529,0.053,0.0546,0.0564,0.0537,0.0537,0.0578,0.058,0.0581,0.0612,0,0,0,0,0,0,0.054,0.0534,0.0539,0.0522,0.0518,0.0511,0.0508,0.051,0.0523,0.0525,0.0536,0.0536,0.0529,0.0545,0.0546,0.0565,0.0538,0.0577,0.0579,0.0581,0.061,0.0614,0.0618,0,0,0,0,0,0.0541,0.0542,0.0539,0.0535,0.052,0.0511,0.0512,0.0514,0.0525,0.0535,0.0543,0.0537,0.0557,0.0546,0.0547,0.0566,0.0576,0.0578,0.058,0.0608,0.0614,0.0618,0,0,0,0,0,0,0.0573,0.0542,0.054,0.0533,0.0526,0.0513,0.0524,0.0526,0.0542,0.055,0.0546,0.0547,0.0575,0.0564,0.0553,0.0584,0.0567,0.0569,0.0588,0.0593,0.0597,0.0611,0.0538,0,0,0,0,0,0.0579,0.0572,0.0548,0.0548,0.0544,0.054,0.0543,0.0543,0.0544,0.0553,0.0559,0.0567,0.0581,0.0581,0.0594,0.0602,0.0606,0.0617,0.0621,0.0624,0.0637,0.0661,0.0669,0.0588,0.0588,0.0588,0,0,0.0592,0.0575,0.0573,0.0555,0.0553,0.0548,0.0545,0.055,0.0557,0.0551,0.0577,0.059,0.0591,0.0609,0.0619,0.0601,0.0647,0.0627,0.063,0.0641,0.0664,0.0672,0.0679,0.0589,0.0589,0.0589,0,0,0.0606,0.06,0.0595,0.0587,0.0578,0.0572,0.0577,0.0572,0.0585,0.0603,0.0608,0.063,0.0643,0.0646,0.0649,0.0682,0.0678,0.0688,0.0707,0.073,0.0737,0.0743,0.0746,0.0753,0.0676,0.0676,0.0676,0,0.0627,0.061,0.0597,0.0589,0.0583,0.0584,0.058,0.0592,0.0598,0.0608,0.0617,0.0661,0.0662,0.0683,0.0697,0.0692,0.0701,0.0686,0.0736,0.0742,0.0748,0.075,0.0756,0.0678,0.0678,0.0678,0.0678,0,0.0625,0.062,0.062,0.0605,0.0601,0.0601,0.0597,0.0609,0.0628,0.064,0.0684,0.0699,0.0724,0.0727,0.0724,0.0764,0.0756,0.0748,0.0723,0.0758,0.0757,0.0763,0.0681,0.068,0.068,0.0679,0,0,0.0648,0.0623,0.0625,0.0615,0.0608,0.0599,0.0612,0.0619,0.0641,0.067,0.0703,0.0738,0.0767,0.0774,0.0779,0.0795,0.0839,0.0793,0.0793,0.0795,0.0885,0.0823,0.0824,0.0845,0.0846,0.0847,0.0863,0,0.0655,0.064,0.0625,0.0619,0.061,0.0603,0.0617,0.0626,0.0657,0.0694,0.0724,0.0776,0.0779,0.081,0.0827,0.0847,0.086,0.0835,0.0852,0.0852,0.0793,0.083,0.0852,0.0868,0.0869,0.087,0.0871,0,0.0652,0.0641,0.0635,0.0616,0.0613,0.062,0.0633,0.0645,0.069,0.0719,0.0771,0.0812,0.0859,0.086,0.0907,0.0895,0.0902,0.0905,0.0905,0.0844,0.0803,0.0829,0.0882,0.0881,0.0881,0.088,0.0879,0,0.066,0.0643,0.0639,0.0632,0.062,0.0626,0.0634,0.0666,0.0683,0.0759,0.0797,0.0855,0.0904,0.0928,0.0952,0.094,0.0993,0.0968,0.0911,0.0906,0.0942,0.0935,0.1003,0.1003,0.1003,0.1002,0.1002,0,0.0656,0.0651,0.0649,0.0644,0.0649,0.0644,0.0671,0.0688,0.0732,0.0765,0.0833,0.0879,0.0932,0.0967,0.097,0.0964,0.1009,0.0929,0.0915,0.0952,0.0946,0.0945,0.0938,0.1003,0.1003,0.1003,0.1003,0,0.0655,0.0654,0.0646,0.0647,0.0651,0.0661,0.0679,0.0697,0.0754,0.08,0.0833,0.091,0.0963,0.099,0.1026,0.0985,0.0984,0.0967,0.1006,0.0992,0.0871,0.0866,0.0899,0.0897,0.0896,0.0894,0.0893,0,0.0647,0.0647,0.0652,0.0653,0.0658,0.0673,0.0682,0.0712,0.0726,0.0812,0.0827,0.0915,0.0959,0.0963,0.0989,0.0981,0.0966,0.0947,0.0912,0.0882,0.0865,0.0862,0.0859,0.0891,0.089,0.089,0.089,0,0.0634,0.0649,0.0644,0.0652,0.0661,0.065,0.0667,0.0667,0.0705,0.0772,0.0821,0.0857,0.0908,0.0932,0.0938,0.0928,0.095,0.093,0.0932,0.0899,0.0873,0.0857,0.0855,0.0884,0.0885,0.0885,0.0886,0,0.0632,0.063,0.0635,0.0632,0.0641,0.0615,0.0621,0.063,0.0645,0.0729,0.0749,0.0839,0.091,0.0905,0.091,0.0899,0.0873,0.0825,0.0833,0.0839,0.081,0.0767,0.0745,0,0,0,0,0,0.0619,0.0609,0.0607,0.059,0.0597,0.0593,0.0598,0.0602,0.0648,0.0665,0.0698,0.0748,0.0782,0.0825,0.0799,0.0854,0.0858,0.0816,0.0802,0.0854,0.086,0.083,0,0,0,0,0,0,0.0607,0.061,0.0597,0.0556,0.0537,0.0525,0.0521,0.0545,0.0545,0.0615,0.0643,0.0705,0.075,0.0807,0.0795,0.08,0.0771,0.0863,0.086,0.085,0.0856,0.0861,0.0832,0,0,0,0,0]},{"header":{"parameterUnit":"m.s-1","parameterCategory":2,"la1":30.2991,"la2":30.254,"lo1":-89.0895,"lo2":-89.0444,"dy":0.0017,"dx":0.0017,"nx":28,"ny":28,"refTime":"2024-07-04T21:00:00:Z","depth":"4","parameterNumber":3,"parameterNumberName":"V-component_of_CURRENTS"},"data":[0,0,0,0,0,0,0,0,0,0,0,0,0,0,0,0,0,0,0,0,0,0,0,0,0,0,0,0,0,0,0,0,0,0,0,0,0,0,0,0,0,0,0,0,0,0,0,0,0,0,0,0,0,0,0,0,0,0,0.0108,0.0108,0,0.011,0.011,0.011,0.0111,0.011,0.011,0.011,0.0101,0.0101,0.01,0,0,0,0,0,0,0,0,0,0,0,0,0,0.0121,0.0121,0.0108,0.0108,0.0108,0.011,0.011,0.011,0.0111,0.011,0.011,0.011,0.0101,0.0101,0.01,0,0,0,0,0,0,0,0,0,0,0,0,0,0.012,0.0121,0.0108,0.0108,0.0107,0.011,0.011,0.011,0.0111,0.011,0.011,0.011,0.0101,0.0101,0.01,0.0102,0,0,0.01,0.01,0,0,0,0,0,0,0,0,0.012,0.0119,0.0108,0.0108,0.0107,0.0109,0.0111,0.0107,0.0111,0.0111,0.011,0.011,0.0102,0.0101,0.0104,0.0102,0.0102,0.01,0.01,0.0099,0.0099,0,0,0,0,0,0,0,0.012,0.0119,0.011,0.0108,0.0107,0.0113,0.0112,0.011,0.0108,0.0111,0.011,0.0109,0.0102,0.0104,0.0104,0.0101,0.01,0.01,0.0099,0.0099,0.0107,0.0108,0,0,0,0,0,0,0.0117,0.0119,0.011,0.011,0.0112,0.0112,0.0112,0.0109,0.0108,0.0107,0.0109,0.0109,0.0105,0.0104,0.0103,0.0116,0.0099,0.0099,0.0099,0.0107,0.0107,0.0108,0,0,0,0,0,0,0.0117,0.0116,0.011,0.0114,0.0113,0.0112,0.0109,0.011,0.0114,0.0107,0.0106,0.0114,0.0105,0.0104,0.0106,0.0115,0.0099,0.0099,0.0106,0.0107,0.0108,0.0135,0,0,0,0,0,0,0.0117,0.0116,0.0118,0.0113,0.0113,0.0114,0.0109,0.011,0.0113,0.0113,0.011,0.0109,0.0104,0.0106,0.0105,0.0115,0.0099,0.0106,0.0107,0.0107,0.0133,0.0136,0.0138,0,0,0,0,0,0.0118,0.012,0.0118,0.0117,0.0114,0.0115,0.0115,0.0115,0.0113,0.0118,0.0116,0.0109,0.011,0.0106,0.0105,0.0115,0.0106,0.0107,0.0107,0.0132,0.0135,0.0138,0,0,0,0,0,0,0.0129,0.012,0.0118,0.0118,0.0118,0.0114,0.012,0.0117,0.012,0.0121,0.0114,0.0113,0.0119,0.0112,0.0108,0.0119,0.0107,0.0107,0.0126,0.0129,0.0131,0.014,0.0099,0,0,0,0,0,0.0131,0.0131,0.0124,0.0127,0.0126,0.0124,0.0125,0.0123,0.0122,0.0124,0.0121,0.0119,0.0121,0.0121,0.012,0.0125,0.0117,0.0131,0.0133,0.0135,0.0141,0.0138,0.0141,0.011,0.011,0.011,0,0,0.0137,0.0133,0.0133,0.0129,0.013,0.0134,0.0125,0.0128,0.0135,0.0122,0.0132,0.0128,0.0125,0.0132,0.0134,0.0127,0.0139,0.0136,0.0138,0.0143,0.0139,0.0142,0.0145,0.0111,0.0111,0.0111,0,0,0.0147,0.0143,0.0147,0.0147,0.0146,0.0144,0.0146,0.0143,0.0146,0.0152,0.0147,0.015,0.0149,0.0151,0.0152,0.0167,0.0153,0.0165,0.0184,0.0181,0.0183,0.0185,0.0174,0.0175,0.0165,0.0165,0.0165,0,0.0154,0.0157,0.0149,0.0154,0.0159,0.015,0.0159,0.016,0.016,0.0167,0.0158,0.0167,0.0161,0.0176,0.018,0.0174,0.0165,0.0174,0.0184,0.0186,0.0188,0.0176,0.0177,0.0167,0.0167,0.0166,0.0166,0,0.0165,0.0171,0.0175,0.0177,0.0182,0.0188,0.0186,0.0192,0.0192,0.0195,0.0208,0.02,0.0208,0.0204,0.0197,0.0209,0.0196,0.0188,0.0177,0.0193,0.0179,0.0179,0.0169,0.0168,0.0168,0.0168,0,0,0.0173,0.0181,0.0184,0.0193,0.0196,0.0202,0.0213,0.0224,0.0241,0.0236,0.0256,0.0255,0.0252,0.0253,0.0244,0.0238,0.0238,0.0219,0.0218,0.0209,0.0223,0.0195,0.0192,0.023,0.023,0.023,0.0207,0,0.0187,0.0203,0.0203,0.0226,0.0235,0.0235,0.0252,0.0262,0.0268,0.0284,0.0278,0.0294,0.0271,0.0278,0.0269,0.0249,0.024,0.0244,0.0209,0.0208,0.0182,0.0192,0.0231,0.0207,0.0207,0.0207,0.0207,0,0.0199,0.0209,0.0232,0.0256,0.0262,0.0276,0.0305,0.0319,0.0335,0.0341,0.0348,0.0343,0.0342,0.0318,0.029,0.0292,0.0263,0.024,0.0238,0.0204,0.018,0.0189,0.0207,0.0207,0.0207,0.0207,0.0207,0,0.0211,0.0232,0.0254,0.026,0.0283,0.0301,0.0318,0.034,0.0364,0.0381,0.0399,0.0389,0.0392,0.0355,0.0304,0.03,0.0263,0.0252,0.0198,0.0196,0.0216,0.0214,0.0233,0.0233,0.0233,0.0234,0.0234,0,0.0224,0.0243,0.0264,0.0277,0.0313,0.0324,0.0368,0.0381,0.0413,0.0448,0.0435,0.0452,0.0401,0.0373,0.0319,0.0257,0.0275,0.0205,0.0191,0.0227,0.0226,0.0216,0.0214,0.0233,0.0233,0.0233,0.0233,0,0.0234,0.0246,0.0274,0.0306,0.032,0.0348,0.04,0.0434,0.0457,0.0501,0.051,0.0503,0.0462,0.04,0.0336,0.0281,0.0222,0.0194,0.0234,0.0222,0.0152,0.0152,0.0138,0.0137,0.0136,0.0135,0.0135,0,0.0238,0.0254,0.0296,0.0318,0.0335,0.0378,0.0416,0.0453,0.0491,0.0531,0.0555,0.0532,0.0512,0.0407,0.0329,0.0221,0.0201,0.0167,0.0162,0.0157,0.0144,0.0146,0.0147,0.0133,0.0133,0.0133,0.0132,0,0.0247,0.0265,0.0289,0.0335,0.0376,0.0426,0.0479,0.051,0.0558,0.0577,0.0597,0.0548,0.0497,0.0406,0.0317,0.024,0.0188,0.0157,0.0158,0.0153,0.015,0.0139,0.0141,0.0129,0.0129,0.013,0.013,0,0.0254,0.0274,0.0308,0.035,0.0403,0.0463,0.049,0.0538,0.0577,0.0619,0.0619,0.057,0.054,0.0416,0.0336,0.0252,0.0229,0.0199,0.0198,0.02,0.0217,0.0222,0.0215,0,0,0,0,0,0.0254,0.0278,0.0319,0.0374,0.0431,0.0466,0.053,0.0557,0.06,0.0618,0.0622,0.0575,0.0463,0.0419,0.0331,0.0304,0.0203,0.0195,0.0165,0.0111,0.0114,0.012,0,0,0,0,0,0,0.0253,0.0289,0.0316,0.0388,0.0431,0.0503,0.0547,0.0578,0.0589,0.0613,0.0558,0.0541,0.0432,0.0514,0.0326,0.0301,0.0267,0.0147,0.0144,0.0108,0.0112,0.0115,0.0122,0,0,0,0,0]}]]